Location: Killam
(52.7910°N, 111.8608°W)
Time: 11:36:58
(UTC+00:00)

METEOR M2 - Pass Details

Date: 22 March 2026
Orbit: 817 x 824 km, 98.5° (Epoch: 14 April)

Event Time Altitude Azimuth Distance (km) Brightness Sun altitude
Rises 12:19:59 0° 14° (NNE) 3,375 ? -10.5°
Reaches altitude 10° 12:22:20 10° 12° (NNE) 2,438 ? -10.2°
Maximum altitude 12:27:43 73° 289° (WNW) 865 ? -9.4°
Drops below altitude 10° 12:33:04 10° 206° (SSW) 2,419 ? -8.6°
Sets 12:35:24 0° 204° (SSW) 3,347 ? -8.2°
